Weather History for Coleman, TX

Change the Weather History Date:

Sunday, August 25, 2013

  Actual Average (KABI) Record (KABI)
Temperature  
Mean Temperature 84 °F 82 °F  
Max Temperature 96 °F 93 °F 105 °F (2011)
Min Temperature 71 °F 71 °F 58 °F (1926)
Degree Days  
Heating Degree Days 0 0  
Month to date heating degree days 0  
Since 1 June heating degree days 1  
Since 1 July heating degree days 0  
Cooling Degree Days 18 17  
Month to date cooling degree days 457  
Year to date cooling degree days 1850  
Since 1 June cooling degree days 1453  
Growing Degree Days 34 (Base 50)    
Moisture  
Dew Point 61 °F    
Average Humidity 48    
Maximum Humidity 73    
Minimum Humidity 25    
Precipitation  
Precipitation 0.00 in 0.08 in 0.74 in (1911)
Month to date precipitation 2.05  
Year to date precipitation 16.42  
Sea Level Pressure  
Sea Level Pressure 30.13 in    
Wind  
Wind Speed 4 mph (ESE)    
Max Wind Speed 17 mph    
Max Gust Speed 23 mph    
Visibility 10 miles    
Events      
T = Trace of Precipitation, MM = Missing Value Source: NWS Daily Summary

Daily Weather History Graph

Daily Weather History Graph

Search for Another Location

Airport:

Trip Planner

Search our weather history database for the weather conditions in past years. The results will help you decide how hot, cold, wet, or windy it might be!

Date:

Astronomy

Aug. 25, 2013 Rise Set
Actual Time 7:08 AM CDT 8:09 PM CDT
Civil Twilight 6:43 AM CDT 8:34 PM CDT
Nautical Twilight 6:13 AM CDT 9:04 PM CDT
Astronomical Twilight 5:43 AM CDT 9:35 PM CDT
Moon 11:04 PM CDT (8/25) 11:50 AM CDT (8/25)
Length of Visible Light 13h 51m
Length of Day
13h 00m
Waning Gibbous, 75% of the Moon is Illuminated
Aug 25
Waning Gibbous
Aug 28
Last Quarter
Sep 5
New
Sep 12
First Quarter
Sep 19
Full

Hourly Weather History & Observations

Time (CDT) Temp. Heat Index Dew Point Humidity Pressure Visibility Wind Dir Wind Speed Gust Speed Precip Events Conditions
12:15 AM 80.1 °F 81.0 °F 60.6 °F 51% 30.09 in 10.0 mi Calm Calm - N/A   Clear
12:35 AM 79.9 °F - 60.6 °F 52% 30.10 in 10.0 mi Calm Calm - N/A   Clear
12:55 AM 79.3 °F - 61.0 °F 53% 30.10 in 10.0 mi Calm Calm - N/A   Clear
1:15 AM 78.6 °F - 60.6 °F 54% 30.10 in 10.0 mi Calm Calm - N/A   Scattered Clouds
1:35 AM 79.0 °F - 61.0 °F 54% 30.11 in 10.0 mi Calm Calm - N/A   Scattered Clouds
1:55 AM 79.0 °F - 61.2 °F 54% 30.11 in 10.0 mi Calm Calm - N/A   Mostly Cloudy
2:15 AM 78.4 °F - 61.9 °F 57% 30.11 in 10.0 mi Calm Calm - N/A   Overcast
2:35 AM 78.3 °F - 61.2 °F 56% 30.11 in 10.0 mi ENE 3.5 mph - N/A   Mostly Cloudy
2:55 AM 77.9 °F - 61.9 °F 58% 30.11 in 10.0 mi Calm Calm - N/A   Scattered Clouds
3:15 AM 77.2 °F - 61.5 °F 58% 30.11 in 10.0 mi Calm Calm - N/A   Clear
3:35 AM 77.0 °F - 61.5 °F 59% 30.11 in 10.0 mi Calm Calm - N/A   Clear
3:55 AM 75.6 °F - 61.9 °F 62% 30.11 in 10.0 mi Calm Calm - N/A   Clear
4:15 AM 75.6 °F - 61.9 °F 62% 30.11 in 10.0 mi Calm Calm - N/A   Clear
4:35 AM 74.7 °F - 62.1 °F 65% 30.11 in 10.0 mi Calm Calm - N/A   Clear
4:55 AM 74.3 °F - 62.2 °F 66% 30.11 in 10.0 mi Calm Calm - N/A   Clear
5:15 AM 74.7 °F - 62.6 °F 66% 30.11 in 10.0 mi Calm Calm - N/A   Clear
5:35 AM 74.5 °F - 62.4 °F 66% 30.12 in 10.0 mi Calm Calm - N/A   Clear
5:55 AM 74.7 °F - 61.3 °F 63% 30.13 in 10.0 mi SE 3.5 mph - N/A   Clear
6:15 AM 73.6 °F - 61.9 °F 67% 30.14 in 10.0 mi Calm Calm - N/A   Clear
6:35 AM 73.9 °F - 63.0 °F 68% 30.13 in 10.0 mi Calm Calm - N/A   Clear
6:55 AM 72.5 °F - 62.6 °F 71% 30.14 in 10.0 mi Calm Calm - N/A   Clear
7:15 AM 72.0 °F - 63.0 °F 73% 30.14 in 10.0 mi Calm Calm - N/A   Clear
7:35 AM 71.4 °F - 61.9 °F 72% 30.15 in 10.0 mi Calm Calm - N/A   Clear
7:55 AM 72.7 °F - 62.6 °F 71% 30.16 in 10.0 mi Calm Calm - N/A   Clear
8:15 AM 75.4 °F - 64.0 °F 68% 30.16 in 10.0 mi Calm Calm - N/A   Clear
8:35 AM 77.0 °F - 64.4 °F 65% 30.16 in 10.0 mi Calm Calm - N/A   Clear
8:55 AM 78.8 °F - 65.3 °F 63% 30.16 in 10.0 mi South 3.5 mph - N/A   Clear
9:15 AM 81.9 °F 84.1 °F 66.4 °F 59% 30.17 in 10.0 mi South 4.6 mph - N/A   Clear
9:35 AM 83.1 °F 85.7 °F 66.9 °F 58% 30.17 in 10.0 mi SSW 3.5 mph - N/A   Clear
9:55 AM 84.6 °F 87.4 °F 67.5 °F 56% 30.18 in 10.0 mi South 5.8 mph - N/A   Clear
10:15 AM 85.1 °F 87.9 °F 67.3 °F 55% 30.18 in 10.0 mi SSW 8.1 mph - N/A   Clear
10:35 AM 86.2 °F 88.4 °F 66.4 °F 51% 30.18 in 10.0 mi SSW 3.5 mph - N/A   Clear
10:55 AM 86.9 °F 89.6 °F 66.7 °F 51% 30.18 in 10.0 mi South 6.9 mph - N/A   Scattered Clouds
11:15 AM 86.2 °F 88.8 °F 66.7 °F 52% 30.18 in 10.0 mi SSW 3.5 mph - N/A   Overcast
11:35 AM 88.7 °F 91.1 °F 65.8 °F 47% 30.18 in 10.0 mi South 5.8 mph - N/A   Scattered Clouds
11:55 AM 89.6 °F 91.5 °F 64.8 °F 44% 30.17 in 10.0 mi East 5.8 mph - N/A   Clear
12:15 PM 89.1 °F 91.0 °F 64.9 °F 45% 30.16 in 10.0 mi SSE 9.2 mph - N/A   Scattered Clouds
12:35 PM 90.9 °F 92.3 °F 64.0 °F 41% 30.16 in 10.0 mi SSE 4.6 mph - N/A   Scattered Clouds
12:55 PM 89.8 °F 90.7 °F 63.3 °F 41% 30.15 in 10.0 mi East 4.6 mph - N/A   Scattered Clouds
1:15 PM 91.9 °F 92.5 °F 61.9 °F 37% 30.15 in 10.0 mi South 6.9 mph - N/A   Scattered Clouds
1:35 PM 90.1 °F 90.2 °F 61.7 °F 38% 30.14 in 10.0 mi East 5.8 mph - N/A   Mostly Cloudy
1:55 PM 91.8 °F 92.2 °F 61.9 °F 37% 30.14 in 10.0 mi East 9.2 mph - N/A   Scattered Clouds
2:15 PM 92.8 °F 93.5 °F 61.9 °F 36% 30.14 in 10.0 mi East 8.1 mph - N/A   Clear
2:35 PM 91.6 °F 91.3 °F 60.1 °F 35% 30.14 in 10.0 mi East 10.4 mph 18.4 mph N/A   Mostly Cloudy
2:55 PM 94.8 °F 94.2 °F 59.0 °F 30% 30.12 in 10.0 mi ESE 15.0 mph - N/A   Scattered Clouds
3:15 PM 95.7 °F 94.7 °F 58.1 °F 28% 30.11 in 10.0 mi East 15.0 mph 20.7 mph N/A   Scattered Clouds
3:35 PM 94.1 °F 93.1 °F 58.3 °F 30% 30.11 in 10.0 mi ESE 10.4 mph 23.0 mph N/A   Scattered Clouds
3:55 PM 95.5 °F 94.4 °F 57.9 °F 28% 30.10 in 10.0 mi ESE 17.3 mph 23.0 mph N/A   Scattered Clouds
4:15 PM 94.8 °F 93.1 °F 56.1 °F 27% 30.10 in 10.0 mi East 12.7 mph 20.7 mph N/A   Scattered Clouds
4:35 PM 96.1 °F 94.1 °F 55.4 °F 25% 30.09 in 10.0 mi East 16.1 mph 19.6 mph N/A   Scattered Clouds
4:55 PM 96.1 °F 94.1 °F 55.2 °F 25% 30.09 in 10.0 mi East 16.1 mph 19.6 mph N/A   Clear
5:15 PM 94.8 °F 92.8 °F 55.2 °F 26% 30.08 in 10.0 mi East 12.7 mph 20.7 mph N/A   Clear
5:35 PM 93.9 °F 92.6 °F 56.8 °F 29% 30.08 in 10.0 mi ESE 12.7 mph - N/A   Clear
5:55 PM 94.8 °F 93.4 °F 57.2 °F 28% 30.08 in 10.0 mi ESE 15.0 mph 19.6 mph N/A   Clear
6:15 PM 93.7 °F 92.3 °F 57.0 °F 29% 30.08 in 10.0 mi ESE 16.1 mph 21.9 mph N/A   Clear
6:35 PM 93.6 °F 91.8 °F 56.1 °F 28% 30.08 in 10.0 mi ESE 13.8 mph 23.0 mph N/A   Clear
6:55 PM 93.4 °F 91.5 °F 55.4 °F 28% 30.07 in 10.0 mi East 16.1 mph 21.9 mph N/A   Clear
7:15 PM 92.5 °F 91.0 °F 56.5 °F 30% 30.07 in 10.0 mi ESE 16.1 mph - N/A   Clear
7:35 PM 91.4 °F 89.6 °F 56.1 °F 30% 30.07 in 10.0 mi East 15.0 mph 19.6 mph N/A   Clear
7:55 PM 90.1 °F 88.6 °F 56.5 °F 32% 30.08 in 10.0 mi ESE 13.8 mph 23.0 mph N/A   Clear
8:15 PM 88.9 °F 87.3 °F 56.5 °F 33% 30.09 in 10.0 mi ESE 13.8 mph 19.6 mph N/A   Clear
8:35 PM 87.8 °F 86.5 °F 57.2 °F 35% 30.10 in 10.0 mi ESE 11.5 mph - N/A   Clear
8:55 PM 86.5 °F 85.6 °F 58.1 °F 38% 30.10 in 10.0 mi ESE 10.4 mph - N/A   Clear
9:15 PM 85.1 °F 84.6 °F 58.8 °F 41% 30.11 in 10.0 mi ESE 9.2 mph - N/A   Clear
9:35 PM 84.4 °F 84.2 °F 59.4 °F 43% 30.12 in 10.0 mi ESE 8.1 mph - N/A   Clear
9:55 PM 83.8 °F 83.8 °F 60.1 °F 44% 30.13 in 10.0 mi ESE 8.1 mph - N/A   Clear
10:15 PM 83.3 °F 83.5 °F 60.8 °F 46% 30.14 in 10.0 mi ESE 8.1 mph - N/A   Clear
10:35 PM 82.6 °F 83.1 °F 61.2 °F 48% 30.14 in 10.0 mi ESE 6.9 mph - N/A   Clear
10:55 PM 82.4 °F 83.0 °F 61.3 °F 49% 30.15 in 10.0 mi ESE 8.1 mph - N/A   Clear
11:15 PM 81.5 °F 82.2 °F 61.2 °F 50% 30.15 in 10.0 mi ESE 5.8 mph - N/A   Clear
11:35 PM 80.2 °F 81.2 °F 61.0 °F 52% 30.15 in 10.0 mi ESE 4.6 mph - N/A   Clear
11:55 PM 79.2 °F - 61.2 °F 54% 30.15 in 10.0 mi ESE 4.6 mph - N/A   Clear